Time,TemperatureF,DewpointF,PressureIn,WindDirection,WindDirectionDegrees,WindSpeedMPH,WindSpeedGustMPH,Humidity,HourlyPrecipIn,Conditions,Clouds,dailyrainin,SoftwareType,DateUTC
2013-07-20 00:11:00,62.0,-99.9,-100.00,North,-999,-999.0,-999.0,-999,0.00,,,0.00,,2013-07-20 06:11:00,
2013-07-20 00:22:00,62.0,-99.9,-100.00,North,-999,-999.0,-999.0,-999,0.00,,,0.00,,2013-07-20 06:22:00,
2013-07-20 00:32:00,62.0,-99.9,-100.00,North,-999,-999.0,-999.0,-999,0.00,,,0.00,,2013-07-20 06:32:00,
2013-07-20 00:43:00,62.0,-99.9,-100.00,North,-999,-999.0,-999.0,-999,0.00,,,0.00,,2013-07-20 06:43:00,
2013-07-20 01:12:00,59.0,-99.9,-100.00,North,-999,-999.0,-999.0,-999,0.00,,,0.01,,2013-07-20 07:12:00,
2013-07-20 01:22:00,59.0,-99.9,-100.00,North,-999,-999.0,-999.0,-999,0.00,,,0.01,,2013-07-20 07:22:00,
2013-07-20 01:33:00,59.0,-99.9,-100.00,North,-999,-999.0,-999.0,-999,0.00,,,0.01,,2013-07-20 07:33:00,
2013-07-20 01:44:00,59.0,-99.9,-100.00,North,-999,-999.0,-999.0,-999,0.00,,,0.01,,2013-07-20 07:44:00,
2013-07-20 02:11:00,57.0,-99.9,-100.00,North,-999,-999.0,-999.0,-999,-99.99,,,-99.99,,2013-07-20 08:11:00,
2013-07-20 02:22:00,57.0,-99.9,-100.00,North,-999,-999.0,-999.0,-999,-99.99,,,-99.99,,2013-07-20 08:22:00,
2013-07-20 02:32:00,57.0,-99.9,-100.00,North,-999,-999.0,-999.0,-999,-99.99,,,-99.99,,2013-07-20 08:32:00,
2013-07-20 02:44:00,57.0,-99.9,-100.00,North,-999,-999.0,-999.0,-999,-99.99,,,-99.99,,2013-07-20 08:44:00,
2013-07-20 04:11:00,54.0,-99.9,-100.00,North,-999,-999.0,-999.0,-999,-99.99,,,0.00,,2013-07-20 10:11:00,
2013-07-20 04:22:00,54.0,-99.9,-100.00,North,-999,-999.0,-999.0,-999,-99.99,,,0.00,,2013-07-20 10:22:00,
2013-07-20 04:33:00,54.0,-99.9,-100.00,North,-999,-999.0,-999.0,-999,-99.99,,,0.00,,2013-07-20 10:33:00,
2013-07-20 04:42:00,54.0,-99.9,-100.00,North,-999,-999.0,-999.0,-999,-99.99,,,0.00,,2013-07-20 10:42:00,
2013-07-20 05:11:00,52.0,-99.9,-100.00,North,-999,-999.0,-999.0,-999,0.00,,,0.00,,2013-07-20 11:11:00,
2013-07-20 05:22:00,52.0,-99.9,-100.00,North,-999,-999.0,-999.0,-999,0.00,,,0.00,,2013-07-20 11:22:00,
2013-07-20 05:32:00,52.0,-99.9,-100.00,North,-999,-999.0,-999.0,-999,0.00,,,0.00,,2013-07-20 11:32:00,
2013-07-20 05:43:00,52.0,-99.9,-100.00,North,-999,-999.0,-999.0,-999,0.00,,,0.00,,2013-07-20 11:43:00,
2013-07-20 06:11:00,51.0,-99.9,-100.00,North,-999,-999.0,-999.0,-999,0.00,,,0.00,,2013-07-20 12:11:00,
2013-07-20 06:22:00,51.0,-99.9,-100.00,North,-999,-999.0,-999.0,-999,0.00,,,0.00,,2013-07-20 12:22:00,
2013-07-20 06:32:00,51.0,-99.9,-100.00,North,-999,-999.0,-999.0,-999,0.00,,,0.00,,2013-07-20 12:32:00,
2013-07-20 07:11:00,50.0,-99.9,-100.00,North,-999,-999.0,-999.0,-999,0.00,,,-99.99,,2013-07-20 13:11:00,
2013-07-20 07:23:00,50.0,-99.9,-100.00,North,-999,-999.0,-999.0,-999,0.00,,,-99.99,,2013-07-20 13:23:00,
2013-07-20 07:32:00,50.0,-99.9,-100.00,North,-999,-999.0,-999.0,-999,0.00,,,-99.99,,2013-07-20 13:32:00,
2013-07-20 07:43:00,50.0,-99.9,-100.00,North,-999,-999.0,-999.0,-999,0.00,,,-99.99,,2013-07-20 13:43:00,
2013-07-20 08:11:00,52.0,-99.9,-100.00,North,-999,-999.0,-999.0,-999,0.00,,,0.00,,2013-07-20 14:11:00,
2013-07-20 08:22:00,52.0,-99.9,-100.00,North,-999,-999.0,-999.0,-999,0.00,,,0.00,,2013-07-20 14:22:00,
2013-07-20 08:32:00,52.0,-99.9,-100.00,North,-999,-999.0,-999.0,-999,0.00,,,0.00,,2013-07-20 14:32:00,
2013-07-20 08:43:00,52.0,-99.9,-100.00,North,-999,-999.0,-999.0,-999,0.00,,,0.00,,2013-07-20 14:43:00,
2013-07-20 09:11:00,59.0,-99.9,-100.00,North,-999,-999.0,-999.0,-999,-99.99,,,-99.99,,2013-07-20 15:11:00,
2013-07-20 09:23:00,59.0,-99.9,-100.00,North,-999,-999.0,-999.0,-999,-99.99,,,-99.99,,2013-07-20 15:23:00,
2013-07-20 09:33:00,59.0,-99.9,-100.00,North,-999,-999.0,-999.0,-999,-99.99,,,-99.99,,2013-07-20 15:33:00,
2013-07-20 09:44:00,59.0,-99.9,-100.00,North,-999,-999.0,-999.0,-999,-99.99,,,-99.99,,2013-07-20 15:44:00,
2013-07-20 10:11:00,66.0,-99.9,-100.00,North,-999,-999.0,-999.0,-999,-99.99,,,0.00,,2013-07-20 16:11:00,
2013-07-20 10:22:00,66.0,-99.9,-100.00,North,-999,-999.0,-999.0,-999,-99.99,,,0.00,,2013-07-20 16:22:00,
2013-07-20 10:32:00,66.0,-99.9,-100.00,North,-999,-999.0,-999.0,-999,-99.99,,,0.00,,2013-07-20 16:32:00,
2013-07-20 10:44:00,66.0,-99.9,-100.00,North,-999,-999.0,-999.0,-999,-99.99,,,0.00,,2013-07-20 16:44:00,
2013-07-20 11:11:00,72.0,-99.9,-100.00,North,-999,-999.0,-999.0,-999,0.01,,,-99.99,,2013-07-20 17:11:00,
2013-07-20 11:22:00,72.0,-99.9,-100.00,North,-999,-999.0,-999.0,-999,0.01,,,-99.99,,2013-07-20 17:22:00,
2013-07-20 11:32:00,72.0,-99.9,-100.00,North,-999,-999.0,-999.0,-999,0.01,,,-99.99,,2013-07-20 17:32:00,
2013-07-20 11:43:00,72.0,-99.9,-100.00,North,-999,-999.0,-999.0,-999,0.01,,,-99.99,,2013-07-20 17:43:00,
2013-07-20 12:45:00,82.0,-99.9,-100.00,North,-999,-999.0,-999.0,-999,-99.99,,,-99.99,,2013-07-20 18:45:00,
2013-07-20 13:18:00,82.0,-99.9,-100.00,North,-999,-999.0,-999.0,-999,-99.99,,,-99.99,,2013-07-20 19:18:00,
2013-07-20 13:27:00,82.0,-99.9,-100.00,North,-999,-999.0,-999.0,-999,-99.99,,,-99.99,,2013-07-20 19:27:00,
2013-07-20 13:36:00,82.0,-99.9,-100.00,North,-999,-999.0,-999.0,-999,-99.99,,,-99.99,,2013-07-20 19:36:00,
2013-07-20 13:45:00,87.0,-99.9,-100.00,North,-999,-999.0,-999.0,-999,0.00,,,0.00,,2013-07-20 19:45:00,
2013-07-20 14:16:00,87.0,-99.9,-100.00,North,-999,-999.0,-999.0,-999,0.00,,,0.00,,2013-07-20 20:16:00,
2013-07-20 14:36:00,87.0,-99.9,-100.00,North,-999,-999.0,-999.0,-999,0.00,,,0.00,,2013-07-20 20:36:00,
2013-07-20 15:45:00,88.0,-99.9,-100.00,North,-999,-999.0,-999.0,-999,-99.99,,,0.00,,2013-07-20 21:45:00,
2013-07-20 15:58:00,88.0,-99.9,-100.00,North,-999,-999.0,-999.0,-999,-99.99,,,0.00,,2013-07-20 21:58:00,
2013-07-20 16:09:00,88.0,-99.9,-100.00,North,-999,-999.0,-999.0,-999,-99.99,,,0.00,,2013-07-20 22:09:00,
2013-07-20 16:19:00,88.0,-99.9,-100.00,North,-999,-999.0,-999.0,-999,-99.99,,,0.00,,2013-07-20 22:19:00,
2013-07-20 16:29:00,88.0,-99.9,-100.00,North,-999,-999.0,-999.0,-999,-99.99,,,0.00,,2013-07-20 22:29:00,
2013-07-20 16:39:00,88.0,-99.9,-100.00,North,-999,-999.0,-999.0,-999,-99.99,,,0.00,,2013-07-20 22:39:00,
2013-07-20 17:45:00,88.0,-99.9,-100.00,North,-999,-999.0,-999.0,-999,-99.99,,,-99.99,,2013-07-20 23:45:00,
2013-07-20 18:18:00,88.0,-99.9,-100.00,North,-999,-999.0,-999.0,-999,-99.99,,,-99.99,,2013-07-21 00:18:00,
2013-07-20 18:24:00,88.0,-99.9,-100.00,North,-999,-999.0,-999.0,-999,-99.99,,,-99.99,,2013-07-21 00:24:00,
2013-07-20 19:13:00,86.0,-99.9,-100.00,North,-999,-999.0,-999.0,-999,0.00,,,-99.99,,2013-07-21 01:13:00,
2013-07-20 19:30:00,86.0,-99.9,-100.00,North,-999,-999.0,-999.0,-999,0.00,,,-99.99,,2013-07-21 01:30:00,
2013-07-20 19:39:00,86.0,-99.9,-100.00,North,-999,-999.0,-999.0,-999,0.00,,,-99.99,,2013-07-21 01:39:00,
2013-07-20 19:45:00,82.0,-99.9,-100.00,North,-999,-999.0,-999.0,-999,0.00,,,0.00,,2013-07-21 01:45:00,
2013-07-20 20:40:00,82.0,-99.9,-100.00,North,-999,-999.0,-999.0,-999,0.00,,,0.00,,2013-07-21 02:40:00,
2013-07-20 20:45:00,78.0,-99.9,-100.00,North,-999,-999.0,-999.0,-999,0.00,,,0.00,,2013-07-21 02:45:00,
2013-07-20 21:15:00,78.0,-99.9,-100.00,North,-999,-999.0,-999.0,-999,0.00,,,0.00,,2013-07-21 03:15:00,
2013-07-20 21:27:00,78.0,-99.9,-100.00,North,-999,-999.0,-999.0,-999,0.00,,,0.00,,2013-07-21 03:27:00,
2013-07-20 21:38:00,78.0,-99.9,-100.00,North,-999,-999.0,-999.0,-999,0.00,,,0.00,,2013-07-21 03:38:00,
2013-07-20 22:11:00,71.0,-99.9,-100.00,North,-999,-999.0,-999.0,-999,0.00,,,0.01,,2013-07-21 04:11:00,
2013-07-20 22:22:00,71.0,-99.9,-100.00,North,-999,-999.0,-999.0,-999,0.00,,,0.01,,2013-07-21 04:22:00,
2013-07-20 22:33:00,71.0,-99.9,-100.00,North,-999,-999.0,-999.0,-999,0.00,,,0.01,,2013-07-21 04:33:00,
2013-07-20 22:43:00,71.0,-99.9,-100.00,North,-999,-999.0,-999.0,-999,0.00,,,0.01,,2013-07-21 04:43:00,
2013-07-20 23:12:00,68.0,-99.9,-100.00,North,-999,-999.0,-999.0,-999,-99.99,,,0.00,,2013-07-21 05:12:00,
2013-07-20 23:22:00,68.0,-99.9,-100.00,North,-999,-999.0,-999.0,-999,-99.99,,,0.00,,2013-07-21 05:22:00,
2013-07-20 23:32:00,68.0,-99.9,-100.00,North,-999,-999.0,-999.0,-999,-99.99,,,0.00,,2013-07-21 05:32:00,
2013-07-20 23:43:00,68.0,-99.9,-100.00,North,-999,-999.0,-999.0,-999,-99.99,,,0.00,,2013-07-21 05:43:00,